Antigo, WI

4:37 PM CST on November 18, 2017 (GMT -0600)
Langlade County

Weather History for KAIG - March, 2013

Change the Weather History Date:

Saturday, March 2, 2013

  Actual Average Record
Temperature  
Mean Temperature 12 °F -  
Max Temperature 25 °F 32 °F 54 °F (1992)
Min Temperature -1 °F 11 °F -22 °F (1962)
Degree Days  
Heating Degree Days 53    
Moisture  
Dew Point 3 °F    
Average Humidity 67    
Maximum Humidity 91    
Minimum Humidity 38    
Precipitation  
Precipitation 0.00 in - - ()
Sea Level Pressure  
Sea Level Pressure 30.16 in    
Wind  
Wind Speed 6 mph (North)    
Max Wind Speed 9 mph    
Max Gust Speed -    
Visibility 10 miles    
Events      
Averages and records for this station are not official NWS values.
T = Trace of Precipitation, MM = Missing Value Source: NWS Daily Summary

Daily Weather History Graph

Daily Weather History Graph

Search for Another Location

Airport or City:

Trip Planner

Search our weather history database for the weather conditions in past years. The results will help you decide how hot, cold, wet, or windy it might be!

Date:

Astronomy

Mar. 02, 2013 Rise Set
Actual Time 6:32 AM CST 5:45 PM CST
Civil Twilight 6:02 AM CST 6:15 PM CST
Nautical Twilight 5:28 AM CST 6:49 PM CST
Astronomical Twilight 4:54 AM CST 7:23 PM CST
Moon 11:42 PM CST (3/2) 8:44 AM CST (3/2)
Length of Visible Light 12h 12m
Length of Day
11h 13m
Waning Gibbous, 74% of the Moon is Illuminated
Mar 2
Waning Gibbous
Mar 4
Last Quarter
Mar 11
New
Mar 19
First Quarter
Mar 27
Full

Hourly Weather History & Observations

Time (CST) Temp. Windchill Dew Point Humidity Pressure Visibility Wind Dir Wind Speed Gust Speed Precip Events Conditions
12:15 AM 9.3 °F -1.7 °F 4.1 °F 79% 30.22 in 10.0 mi North 6.9 mph - N/A   Clear
12:35 AM 7.3 °F -2.8 °F 3.0 °F 82% 30.22 in 10.0 mi North 5.8 mph - N/A   Clear
12:55 AM 3.9 °F -5.3 °F 0.1 °F 84% 30.22 in 10.0 mi North 4.6 mph - N/A   Clear
1:15 AM 5.7 °F -4.8 °F 2.5 °F 86% 30.22 in 10.0 mi NNW 5.8 mph - N/A   Clear
1:35 AM 3.9 °F -3.4 °F 0.3 °F 85% 30.22 in 10.0 mi North 3.5 mph - N/A   Clear
1:55 AM 3.7 °F - 0.9 °F 88% 30.21 in 10.0 mi Calm Calm - N/A   Clear
2:15 AM 3.2 °F - -0.4 °F 85% 30.20 in 10.0 mi Calm Calm - N/A   Clear
2:35 AM 3.7 °F -10.6 °F -0.2 °F 84% 30.20 in 10.0 mi North 9.2 mph - N/A   Clear
2:55 AM 4.3 °F -6.5 °F 0.1 °F 83% 30.20 in 10.0 mi North 5.8 mph - N/A   Clear
3:15 AM 3.9 °F -9.4 °F 0.1 °F 84% 30.20 in 10.0 mi North 8.1 mph - N/A   Clear
3:35 AM 7.5 °F -6.0 °F 2.8 °F 81% 30.19 in 10.0 mi North 9.2 mph - N/A   Clear
3:55 AM 6.1 °F -7.8 °F 2.1 °F 84% 30.19 in 10.0 mi North 9.2 mph - N/A   Clear
4:15 AM 4.6 °F -9.5 °F 0.5 °F 83% 30.20 in 10.0 mi North 9.2 mph - N/A   Clear
4:35 AM 3.6 °F -10.9 °F -0.2 °F 84% 30.20 in 10.0 mi North 9.2 mph - N/A   Clear
4:55 AM 6.1 °F -2.8 °F 2.1 °F 84% 30.20 in 10.0 mi NNW 4.6 mph - N/A   Clear
5:15 AM 6.1 °F -2.8 °F 2.7 °F 86% 30.20 in 10.0 mi NNW 4.6 mph - N/A   Clear
5:35 AM 5.7 °F -3.2 °F 2.5 °F 86% 30.20 in 10.0 mi NNW 4.6 mph - N/A   Clear
6:15 AM -0.4 °F -8.3 °F -2.9 °F 89% 30.20 in 10.0 mi NNW 3.5 mph - N/A   Clear
6:35 AM 0.1 °F -9.7 °F -1.8 °F 91% 30.20 in 10.0 mi NNW 4.6 mph - N/A   Clear
6:55 AM 0.5 °F -7.3 °F -2.7 °F 86% 30.20 in 10.0 mi NNW 3.5 mph - N/A   Clear
7:15 AM -1.1 °F -12.9 °F -3.8 °F 88% 30.20 in 10.0 mi NW 5.8 mph - N/A   Clear
7:35 AM 1.9 °F -7.6 °F -0.9 °F 88% 30.20 in 10.0 mi NNW 4.6 mph - N/A   Clear
7:55 AM 4.1 °F -9.2 °F 1.0 °F 87% 30.20 in 10.0 mi North 8.1 mph - N/A   Clear
8:15 AM 5.4 °F -8.6 °F 2.1 °F 86% 30.20 in 10.0 mi North 9.2 mph - N/A   Clear
8:35 AM 8.1 °F -4.3 °F 4.1 °F 84% 30.20 in 10.0 mi North 8.1 mph - N/A   Clear
8:55 AM 10.9 °F -1.8 °F 5.4 °F 78% 30.20 in 10.0 mi North 9.2 mph - N/A   Clear
9:15 AM 13.3 °F 1.1 °F 6.8 °F 75% 30.20 in 10.0 mi North 9.2 mph - N/A   Clear
9:35 AM 14.2 °F 3.1 °F 7.2 °F 74% 30.19 in 10.0 mi NNE 8.1 mph - N/A   Clear
9:55 AM 14.7 °F 2.9 °F 7.5 °F 73% 30.19 in 10.0 mi North 9.2 mph - N/A   Clear
10:15 AM 15.8 °F 5.1 °F 7.7 °F 70% 30.19 in 10.0 mi North 8.1 mph - N/A   Clear
10:35 AM 16.9 °F 7.4 °F 7.2 °F 66% 30.18 in 10.0 mi North 6.9 mph - N/A   Clear
10:55 AM 18.0 °F 7.7 °F 6.8 °F 62% 30.18 in 10.0 mi North 8.1 mph - N/A   Clear
11:15 AM 19.0 °F 9.0 °F 7.2 °F 60% 30.18 in 10.0 mi North 8.1 mph - N/A   Clear
11:35 AM 19.9 °F 11.1 °F 7.0 °F 57% 30.18 in 10.0 mi North 6.9 mph - N/A   Clear
11:55 AM 20.8 °F 11.2 °F 6.8 °F 55% 30.17 in 10.0 mi North 8.1 mph - N/A   Clear
12:15 PM 21.7 °F 12.3 °F 6.8 °F 53% 30.16 in 10.0 mi North 8.1 mph - N/A   Clear
12:35 PM 22.8 °F 14.5 °F 6.1 °F 49% 30.15 in 10.0 mi NNE 6.9 mph - N/A   Clear
12:55 PM 23.7 °F - 6.8 °F 49% 30.15 in 10.0 mi Calm Calm - N/A   Clear
1:15 PM 23.9 °F 18.0 °F 5.9 °F 46% 30.14 in 10.0 mi NNW 4.6 mph - N/A   Clear
1:35 PM 24.8 °F - 5.7 °F 44% 30.14 in 10.0 mi Calm Calm - N/A   Clear
1:55 PM 25.2 °F 18.3 °F 5.0 °F 42% 30.13 in 10.0 mi NNW 5.8 mph - N/A   Clear
2:15 PM 25.5 °F 19.9 °F 6.4 °F 44% 30.13 in 10.0 mi NNW 4.6 mph - N/A   Clear
2:35 PM 25.7 °F 18.0 °F 5.5 °F 42% 30.13 in 10.0 mi NNW 6.9 mph - N/A   Clear
2:55 PM 25.7 °F 19.0 °F 6.1 °F 43% 30.12 in 10.0 mi North 5.8 mph - N/A   Clear
3:15 PM 25.9 °F 17.4 °F 5.4 °F 42% 30.11 in 10.0 mi NNW 8.1 mph - N/A   Clear
3:35 PM 25.7 °F 17.1 °F 4.8 °F 41% 30.11 in 10.0 mi NNW 8.1 mph - N/A   Clear
3:55 PM 25.7 °F 18.0 °F 3.4 °F 38% 30.11 in 10.0 mi NNW 6.9 mph - N/A   Clear
4:15 PM 25.5 °F 16.9 °F 3.7 °F 39% 30.11 in 10.0 mi NNW 8.1 mph - N/A   Clear
4:35 PM 24.6 °F 15.8 °F 3.7 °F 41% 30.11 in 10.0 mi NNW 8.1 mph - N/A   Clear
4:55 PM 24.4 °F 16.5 °F 3.2 °F 40% 30.11 in 10.0 mi NNW 6.9 mph - N/A   Clear
5:15 PM 23.2 °F 14.1 °F 3.0 °F 42% 30.12 in 10.0 mi NNW 8.1 mph - N/A   Clear
5:35 PM 21.7 °F 12.3 °F 3.0 °F 45% 30.13 in 10.0 mi NNW 8.1 mph - N/A   Clear
5:55 PM 21.0 °F 12.4 °F 2.3 °F 44% 30.13 in 10.0 mi NNW 6.9 mph - N/A   Clear
6:15 PM 20.5 °F 11.7 °F 2.1 °F 45% 30.13 in 10.0 mi North 6.9 mph - N/A   Clear
6:35 PM 16.3 °F 6.7 °F 1.9 °F 53% 30.13 in 10.0 mi North 6.9 mph - N/A   Clear
6:55 PM 14.9 °F 5.0 °F 1.8 °F 56% 30.13 in 10.0 mi North 6.9 mph - N/A   Clear
7:15 PM 17.2 °F 8.9 °F 1.6 °F 50% 30.12 in 10.0 mi North 5.8 mph - N/A   Clear
7:35 PM 14.7 °F 7.3 °F 0.3 °F 53% 30.12 in 10.0 mi North 4.6 mph - N/A   Clear
7:55 PM 8.6 °F - -0.8 °F 66% 30.12 in 10.0 mi Calm Calm - N/A   Clear
8:15 PM 9.7 °F - 0.3 °F 66% 30.12 in 10.0 mi Calm Calm - N/A   Clear
8:35 PM 10.6 °F - 0.3 °F 63% 30.12 in 10.0 mi Calm Calm - N/A   Clear
8:55 PM 7.2 °F 0.3 °F -0.8 °F 70% 30.13 in 10.0 mi NNW 3.5 mph - N/A   Clear
9:15 PM 10.2 °F - 0.7 °F 65% 30.13 in 10.0 mi Calm Calm - N/A   Clear
9:35 PM 9.0 °F - 0.5 °F 69% 30.13 in 10.0 mi Calm Calm - N/A   Clear
9:55 PM 7.2 °F 0.3 °F -0.8 °F 70% 30.12 in 10.0 mi NE 3.5 mph - N/A   Clear
10:15 PM 8.4 °F - 0.3 °F 70% 30.11 in 10.0 mi Calm Calm - N/A   Clear
10:35 PM 9.5 °F - 1.8 °F 71% 30.11 in 10.0 mi Calm Calm - N/A   Mostly Cloudy
10:55 PM 8.6 °F 2.0 °F 1.4 °F 73% 30.10 in 10.0 mi NNE 3.5 mph - N/A   Scattered Clouds
11:15 PM 8.1 °F 1.4 °F 2.1 °F 77% 30.10 in 10.0 mi North 3.5 mph - N/A   Clear
11:35 PM 6.1 °F -2.8 °F 0.1 °F 77% 30.10 in 10.0 mi North 4.6 mph - N/A   Clear
11:55 PM 5.9 °F -3.0 °F -0.2 °F 76% 30.10 in 10.0 mi North 4.6 mph - N/A   Clear